Location: Abyssinia Baptist Church
(32.7840°N, 96.7578°W)
Time: 16:10:07
(UTC+00:00)

Daily predictions for brighter satellites

Satellite Brightness Start Highest point End
(mag) Time Altitude Azimuth Time Altitude Azimuth Time Altitude Azimuth
SJ 16-02 1.7 12:01:29 10° SW 12:05:34 38° WNW 12:09:40 10° N
OAO 2 Rocket 3.4 12:04:47 16° WSW 12:09:04 81° SSE 12:14:11 10° ENE
CZ-4B R/B 3.3 12:07:02 10° NNE 12:10:34 58° E 12:14:13 10° S
H-2A R/B 4.0 12:13:52 20° W 12:13:52 20° W 12:16:11 10° WSW
Meteor 2-15 Rocket 4.4 12:09:15 10° N 12:15:19 78° W 12:21:22 10° S
DELTA 2 R/B (1) 4.2 12:12:08 18° WNW 12:15:54 44° N 12:21:12 10° E
Cosmos 1515 Rocket 3.6 12:12:26 10° NNW 12:16:40 54° W 12:20:53 10° S
Cosmos 2228 Rocket 4.0 12:17:53 10° N 12:22:18 52° E 12:26:44 10° SSE
Meteor 1-27 Rocket 3.7 12:16:58 10° NNW 12:22:40 74° W 12:28:28 10° S
Meteor 1-31 Rocket 3.9 12:21:38 10° NNW 12:24:45 23° WNW 12:27:51 10° SW
Cosmos 1500 Rocket 4.0 12:24:17 10° SSW 12:28:28 40° W 12:32:41 10° N
Sich 1 3.1 12:24:41 10° S 12:28:58 82° E 12:33:14 10° N
SL-4 R/B 2.8 12:28:17 14° W 12:30:31 25° NW 12:33:35 10° NNE
SL-27 R/B 3.2 12:27:43 11° NW 12:30:46 33° W 12:33:56 10° SSW
SKYMED 2 4.4 12:27:31 10° SSW 12:31:19 29° W 12:35:07 10° NW
CZ-4B R/B 4.2 12:30:21 10° ESE 12:32:39 18° ENE 12:34:55 10° NNE
Cosmos 44 4.5 12:28:31 10° S 12:33:45 54° ESE 12:38:55 10° NE
Nadezhda 4 Rocket 4.4 12:29:15 10° SW 12:34:54 38° W 12:40:38 10° NNW
Cosmos 2297 Rocket 4.1 12:30:32 10° N 12:35:19 27° ENE 12:40:05 10° ESE
NOAA 12 4.0 12:30:45 10° N 12:36:00 79° WNW 12:41:13 10° SSW
Cosmos 1939 Rocket 2.7 12:33:24 10° N 12:37:16 88° WNW 12:41:07 10° SSW
CZ-2C R/B 3.5 12:33:53 10° SSW 12:38:40 31° W 12:43:24 10° NW
Meteor 1-25 Rocket 4.2 12:33:33 10° SSW 12:39:06 61° W 12:44:37 10° N
H-2A R/B 2.7 12:36:07 10° SSE 12:40:17 59° ENE 12:44:36 10° N
Cosmos 1805 Rocket 3.7 12:36:47 10° SSW 12:41:03 52° W 12:45:19 10° N
Cosmos 1538 Rocket 4.0 12:36:16 10° NNW 12:41:30 90° NW 12:46:39 10° SSE
ADEOS 4.1 12:37:49 10° N 12:42:32 35° WNW 12:47:14 10° SW
H-2A R/B (2) 4.0 12:37:43 10° WSW 12:42:50 68° SSE 20:22:43 10° SE
Okean 1 4.0 12:40:12 10° N 12:44:05 58° E 12:47:57 10° SSE
Cosmos 1602 4.3 12:45:01 10° SSW 12:48:29 34° W 12:51:58 10° NNW
Cosmos 1092 Rocket 4.3 12:49:04 10° SSW 12:55:00 47° W 13:01:04 10° N
Lacrosse 5 rocket 3.1 23:46:39 10° N 23:48:44 14° NE 23:50:53 10° ENE
Meteor 2-6 Rocket 4.4 23:43:26 10° S 23:49:01 53° E 23:54:28 10° NNE
GPS 2-04 Rocket1 3.1 23:45:02 10° WNW 23:49:07 67° SSW 23:53:11 10° ESE
NOAA 12 4.3 23:46:04 10° S 23:51:23 80° WSW 23:56:44 10° NNW
Cosmos 1812 2.9 23:49:26 10° S 23:53:15 78° W 23:57:07 10° N
Cosmos 1328 Rocket 3.6 23:51:07 10° S 23:55:28 60° E 23:59:50 10° NNE
PSLV R/B 4.2 23:53:09 10° SE 23:56:31 35° ENE 23:59:55 10° N
